Flag for U.S.A. Weather past 2 weeks in Corpus Christi, Texas, U.S.A.

Now
82 °F

Passing clouds.


Feels Like: 89 °F
Forecast: 79 / 94 °F
Wind: 15 mph from South

Location: Corpus Christi International Airport

Current Time: Jul 31, 2014 at 11:17:36 PM

Latest Report: Jul 31, 2014 at 10:51 PM


Visibility: 10 mi

Pressure: 29.93 "Hg

Humidity: 82%

Dew point: 76 °F

Location of Corpus ChristiLocation

Historic Weather in Corpus Christi — Graph

°F

Corpus Christi temperature yesterday

Maximum temperature yesterday: 95 °F (at 1:51 PM)
Minimum temperature yesterday: 74 °F (at 3:51 AM)
Average temperature yesterday: 84 °F

Past Weeks' High & Low Weather Summary

 TemperatureHumidityPressure
High98 °F (Jul 29, 2:51 PM)97% (Jul 29, 3:51 AM)30.10 "Hg (Jul 29, 3:51 AM)
Low71 °F (Jul 29, 6:51 AM)29% (Jul 29, 3:51 PM)29.78 "Hg (Jul 17, 5:51 PM)
Average85 °F74%29.96 "Hg
* Reported Jul 16 9:51 PM — Jul 31 9:51 PM, Corpus Christi, Weather by CustomWeather, © 2014

Note: Actual official high and low records may vary slightly from our data, if they occured in-between our weather recording intervals... More about our weather records

Advertising

Corpus Christi weather history for previous 24 hours

 ConditionsComfort  
Time TempWeatherWind HumidityBarometerVisibility
9:51 PM
Jul 31
83 °FPassing clouds.17 mph77%29.90 "Hg10 mi
8:51 PM84 °FScattered clouds.21 mph74%29.88 "Hg10 mi
7:51 PM87 °FScattered clouds.20 mph65%29.89 "Hg10 mi
6:51 PM90 °FScattered clouds.20 mph56%29.89 "Hg10 mi
5:51 PM94 °FScattered clouds.21 mph48%29.88 "Hg10 mi
4:51 PM95 °FScattered clouds.16 mph49%29.89 "Hg10 mi
3:51 PM97 °FScattered clouds.18 mph48%29.90 "Hg10 mi
2:51 PM98 °FScattered clouds.16 mph46%29.90 "Hg10 mi
1:51 PM97 °FPartly sunny.12 mph45%29.92 "Hg10 mi
12:51 PM96 °FPartly sunny.9 mph46%29.93 "Hg10 mi
11:51 AM94 °FPartly sunny.12 mph49%29.94 "Hg10 mi
10:51 AM92 °FPartly sunny.17 mph54%29.94 "Hg10 mi
9:51 AM89 °FScattered clouds.15 mph61%29.94 "Hg10 mi
8:51 AM83 °FBroken clouds.12 mph82%29.93 "Hg10 mi
7:51 AM80 °FPassing clouds.9 mph90%29.93 "Hg9 mi
6:51 AM79 °FPassing clouds.9 mph90%29.92 "Hg10 mi
5:51 AM79 °FPassing clouds.12 mph90%29.92 "Hg10 mi
5:02 AM80 °FPassing clouds.10 mph87%29.93 "Hg10 mi
3:51 AM80 °FPassing clouds.14 mph87%29.93 "Hg10 mi
2:51 AM81 °FPassing clouds.15 mph85%29.93 "Hg10 mi
1:51 AM81 °FPassing clouds.14 mph82%29.94 "Hg10 mi
12:51 AM81 °FPassing clouds.13 mph82%29.95 "Hg10 mi
11:51 PM
Jul 30
82 °FPassing clouds.12 mph79%29.95 "Hg10 mi
Weather by CustomWeather, © 2014

See weather overviewHow to use our weather pages